Time,TemperatureF,DewpointF,PressureIn,WindDirection,WindDirectionDegrees,WindSpeedMPH,WindSpeedGustMPH,Humidity,HourlyPrecipIn,Conditions,Clouds,dailyrainin,SolarRadiationWatts/m^2,SoftwareType,DateUTC
2013-08-24 00:04:00,70.0,70.0,-100.00,West,265,2.0,11.0,100,0.00,,,0.01,0.000000,,2013-08-24 04:04:00,
2013-08-24 00:44:00,69.0,69.0,-100.00,NNW,338,2.0,6.0,100,0.00,,,0.01,0.000000,,2013-08-24 04:44:00,
2013-08-24 00:54:00,69.0,69.0,-100.00,NNW,338,2.0,6.0,100,0.00,,,0.01,0.000000,,2013-08-24 04:54:00,
2013-08-24 01:03:00,69.0,69.0,-100.00,NNW,338,2.0,6.0,100,0.00,,,0.01,0.000000,,2013-08-24 05:03:00,
2013-08-24 01:43:00,68.0,68.0,-100.00,WNW,287,2.0,5.0,100,0.00,,,0.01,0.000000,,2013-08-24 05:43:00,
2013-08-24 01:53:00,68.0,68.0,-100.00,WNW,287,2.0,5.0,100,0.00,,,0.01,0.000000,,2013-08-24 05:53:00,
2013-08-24 02:02:00,68.0,68.0,-100.00,WNW,287,2.0,5.0,100,0.00,,,0.01,0.000000,,2013-08-24 06:02:00,
2013-08-24 02:42:00,66.0,66.0,-100.00,NNE,25,2.0,4.0,100,0.00,,,0.01,0.000000,,2013-08-24 06:42:00,
2013-08-24 02:52:00,66.0,66.0,-100.00,NNE,25,2.0,4.0,100,0.00,,,0.01,0.000000,,2013-08-24 06:52:00,
2013-08-24 03:02:00,66.0,66.0,-100.00,NNE,25,2.0,4.0,100,0.00,,,0.01,0.000000,,2013-08-24 07:02:00,
2013-08-24 03:43:00,65.0,65.0,-100.00,North,9,0.0,3.0,100,0.00,,,0.01,0.000000,,2013-08-24 07:43:00,
2013-08-24 03:53:00,65.0,65.0,-100.00,North,9,0.0,3.0,100,0.00,,,0.01,0.000000,,2013-08-24 07:53:00,
2013-08-24 04:02:00,65.0,65.0,-100.00,North,9,0.0,3.0,100,0.00,,,0.01,0.000000,,2013-08-24 08:02:00,
2013-08-24 04:42:00,65.0,65.0,-100.00,WSW,252,3.0,6.0,100,0.00,,,0.01,0.000000,,2013-08-24 08:42:00,
2013-08-24 04:52:00,65.0,65.0,-100.00,WSW,252,3.0,6.0,100,0.00,,,0.01,0.000000,,2013-08-24 08:52:00,
2013-08-24 05:01:00,65.0,65.0,-100.00,WSW,252,3.0,6.0,100,0.00,,,0.01,0.000000,,2013-08-24 09:01:00,
2013-08-24 05:44:00,64.0,64.0,-100.00,WNW,303,2.0,4.0,100,0.00,,,0.01,0.000000,,2013-08-24 09:44:00,
2013-08-24 05:53:00,64.0,64.0,-100.00,WNW,303,2.0,4.0,100,0.00,,,0.01,0.000000,,2013-08-24 09:53:00,
2013-08-24 06:04:00,64.0,64.0,-100.00,WNW,303,2.0,4.0,100,0.00,,,0.01,0.000000,,2013-08-24 10:04:00,
2013-08-24 06:42:00,64.0,64.0,-100.00,South,187,2.0,4.0,100,0.00,,,0.01,0.000000,,2013-08-24 10:42:00,
2013-08-24 06:53:00,64.0,64.0,-100.00,South,187,2.0,4.0,100,0.00,,,0.01,0.000000,,2013-08-24 10:53:00,
2013-08-24 07:02:00,64.0,64.0,-100.00,South,187,2.0,4.0,100,0.00,,,0.01,0.000000,,2013-08-24 11:02:00,
2013-08-24 07:42:00,65.0,65.0,-100.00,WSW,248,2.0,6.0,100,0.00,,,0.00,0.000000,,2013-08-24 11:42:00,
2013-08-24 07:52:00,65.0,65.0,-100.00,WSW,248,2.0,6.0,100,0.00,,,0.00,0.000000,,2013-08-24 11:52:00,
2013-08-24 08:02:00,65.0,65.0,-100.00,WSW,248,2.0,6.0,100,0.00,,,0.00,0.000000,,2013-08-24 12:02:00,
2013-08-24 08:42:00,66.0,66.0,-100.00,WNW,287,2.0,4.0,100,0.00,,,0.00,44.000000,,2013-08-24 12:42:00,
2013-08-24 08:52:00,66.0,66.0,-100.00,WNW,287,2.0,4.0,100,0.00,,,0.00,44.000000,,2013-08-24 12:52:00,
2013-08-24 09:02:00,66.0,66.0,-100.00,WNW,287,2.0,4.0,100,0.00,,,0.00,44.000000,,2013-08-24 13:02:00,
2013-08-24 09:42:00,67.0,67.0,-100.00,SW,224,3.0,6.0,100,0.00,,,0.00,112.000000,,2013-08-24 13:42:00,
2013-08-24 09:52:00,67.0,67.0,-100.00,SW,224,3.0,6.0,100,0.00,,,0.00,112.000000,,2013-08-24 13:52:00,
2013-08-24 10:02:00,67.0,67.0,-100.00,SW,224,3.0,6.0,100,0.00,,,0.00,112.000000,,2013-08-24 14:02:00,
2013-08-24 10:42:00,70.0,70.0,-100.00,WSW,246,3.0,5.0,100,0.00,,,0.00,258.000000,,2013-08-24 14:42:00,
2013-08-24 10:52:00,70.0,70.0,-100.00,WSW,246,3.0,5.0,100,0.00,,,0.00,258.000000,,2013-08-24 14:52:00,
2013-08-24 11:01:00,70.0,70.0,-100.00,WSW,246,3.0,5.0,100,0.00,,,0.00,258.000000,,2013-08-24 15:01:00,
2013-08-24 11:45:00,73.0,70.0,-100.00,South,171,4.0,9.0,90,0.00,,,0.00,325.000000,,2013-08-24 15:45:00,
2013-08-24 11:54:00,73.0,70.0,-100.00,South,171,4.0,9.0,90,0.00,,,0.00,325.000000,,2013-08-24 15:54:00,
2013-08-24 12:04:00,73.0,70.0,-100.00,South,171,4.0,9.0,90,0.00,,,0.00,325.000000,,2013-08-24 16:04:00,
2013-08-24 12:42:00,76.0,69.0,-100.00,South,185,5.0,12.0,78,0.00,,,0.00,620.000000,,2013-08-24 16:42:00,
2013-08-24 12:53:00,76.0,69.0,-100.00,South,185,5.0,12.0,78,0.00,,,0.00,620.000000,,2013-08-24 16:53:00,
2013-08-24 13:02:00,76.0,69.0,-100.00,South,185,5.0,12.0,78,0.00,,,0.00,620.000000,,2013-08-24 17:02:00,
2013-08-24 13:42:00,77.0,68.0,-100.00,ESE,103,5.0,8.0,75,0.00,,,0.00,526.000000,,2013-08-24 17:42:00,
2013-08-24 13:52:00,77.0,68.0,-100.00,ESE,103,5.0,8.0,75,0.00,,,0.00,526.000000,,2013-08-24 17:52:00,
2013-08-24 14:03:00,77.0,68.0,-100.00,ESE,103,5.0,8.0,75,0.00,,,0.00,526.000000,,2013-08-24 18:03:00,
2013-08-24 14:42:00,76.0,67.0,-100.00,SSE,162,3.0,10.0,74,0.00,,,0.00,448.000000,,2013-08-24 18:42:00,
2013-08-24 14:53:00,76.0,67.0,-100.00,SSE,162,3.0,10.0,74,0.00,,,0.00,448.000000,,2013-08-24 18:53:00,
2013-08-24 15:01:00,76.0,67.0,-100.00,SSE,162,3.0,10.0,74,0.00,,,0.00,448.000000,,2013-08-24 19:01:00,
2013-08-24 15:42:00,79.0,68.0,-100.00,East,85,4.0,9.0,69,0.00,,,0.00,708.000000,,2013-08-24 19:42:00,
2013-08-24 15:52:00,79.0,68.0,-100.00,East,85,4.0,9.0,69,0.00,,,0.00,708.000000,,2013-08-24 19:52:00,
2013-08-24 16:02:00,79.0,68.0,-100.00,East,85,4.0,9.0,69,0.00,,,0.00,708.000000,,2013-08-24 20:02:00,
2013-08-24 16:42:00,79.0,67.0,-100.00,SSW,194,4.0,10.0,66,0.00,,,0.00,679.000000,,2013-08-24 20:42:00,
2013-08-24 16:53:00,79.0,67.0,-100.00,SSW,194,4.0,10.0,66,0.00,,,0.00,679.000000,,2013-08-24 20:53:00,
2013-08-24 17:02:00,79.0,67.0,-100.00,SSW,194,4.0,10.0,66,0.00,,,0.00,679.000000,,2013-08-24 21:02:00,
2013-08-24 17:43:00,78.0,67.0,-100.00,SE,124,4.0,9.0,70,0.00,,,0.00,339.000000,,2013-08-24 21:43:00,
2013-08-24 17:55:00,78.0,67.0,-100.00,SE,124,4.0,9.0,70,0.00,,,0.00,339.000000,,2013-08-24 21:55:00,
2013-08-24 18:04:00,78.0,67.0,-100.00,SE,124,4.0,9.0,70,0.00,,,0.00,339.000000,,2013-08-24 22:04:00,
2013-08-24 18:43:00,78.0,66.0,-100.00,SSW,195,4.0,11.0,66,0.00,,,0.00,166.000000,,2013-08-24 22:43:00,
2013-08-24 18:53:00,78.0,66.0,-100.00,SSW,195,4.0,11.0,66,0.00,,,0.00,166.000000,,2013-08-24 22:53:00,
2013-08-24 19:03:00,78.0,66.0,-100.00,SSW,195,4.0,11.0,66,0.00,,,0.00,166.000000,,2013-08-24 23:03:00,
2013-08-24 19:43:00,73.0,67.0,-100.00,NW,326,1.0,6.0,81,0.00,,,0.00,64.000000,,2013-08-24 23:43:00,
2013-08-24 19:53:00,73.0,67.0,-100.00,NW,326,1.0,6.0,81,0.00,,,0.00,64.000000,,2013-08-24 23:53:00,
2013-08-24 20:02:00,73.0,67.0,-100.00,NW,326,1.0,6.0,81,0.00,,,0.00,64.000000,,2013-08-25 00:02:00,
2013-08-24 20:42:00,72.0,69.0,-100.00,ENE,72,2.0,5.0,90,0.00,,,-99.99,27.000000,,2013-08-25 00:42:00,
2013-08-24 20:52:00,72.0,69.0,-100.00,ENE,72,2.0,5.0,90,0.00,,,-99.99,27.000000,,2013-08-25 00:52:00,
2013-08-24 21:01:00,72.0,69.0,-100.00,ENE,72,2.0,5.0,90,0.00,,,-99.99,27.000000,,2013-08-25 01:01:00,
2013-08-24 21:43:00,70.0,68.0,-100.00,SW,229,2.0,6.0,92,0.00,,,0.00,2.000000,,2013-08-25 01:43:00,
2013-08-24 21:52:00,70.0,68.0,-100.00,SW,229,2.0,6.0,92,0.00,,,0.00,2.000000,,2013-08-25 01:52:00,
2013-08-24 22:02:00,70.0,68.0,-100.00,SW,229,2.0,6.0,92,0.00,,,0.00,2.000000,,2013-08-25 02:02:00,
2013-08-24 22:42:00,68.0,67.0,-100.00,West,278,1.0,4.0,98,0.00,,,0.00,0.000000,,2013-08-25 02:42:00,
2013-08-24 22:52:00,68.0,67.0,-100.00,West,278,1.0,4.0,98,0.00,,,0.00,0.000000,,2013-08-25 02:52:00,
2013-08-24 23:02:00,68.0,67.0,-100.00,West,278,1.0,4.0,98,0.00,,,0.00,0.000000,,2013-08-25 03:02:00,
2013-08-24 23:44:00,68.0,68.0,-100.00,NNW,345,1.0,3.0,100,0.00,,,0.00,0.000000,,2013-08-25 03:44:00,
2013-08-24 23:54:00,68.0,68.0,-100.00,NNW,345,1.0,3.0,100,0.00,,,0.00,0.000000,,2013-08-25 03:54:00,